• In Kazakhstan
  • List of Countries
  • For 7 days
  • Water Temperature
  • Weather Map
  • News
  • Weather Widgets
  • user-avatar
    Login

    Hourly Weather Kaliski

    Today, 22 September, Sunday

    Time Temperature Precipitation Wind Pressure Humidity
    00:00 +11°C° 0 mm 4 mps 751 mmHg 88%
    01:00 +10°C° 0 mm 4 mps 751 mmHg 91%
    02:00 +9°C° 0 mm 3 mps 751 mmHg 94%
    03:00 +9°C° 0 mm 3 mps 751 mmHg 95%
    04:00 +8°C° 0 mm 3 mps 751 mmHg 96%
    05:00 +8°C° 0 mm 2 mps 751 mmHg 97%
    06:00 +9°C° 0 mm 3 mps 751 mmHg 94%
    07:00 +9°C° 0 mm 3 mps 751 mmHg 92%
    08:00 +10°C° 0 mm 3 mps 751 mmHg 88%
    09:00 +12°C° 0 mm 3 mps 751 mmHg 80%
    10:00 +14°C° 0 mm 3 mps 751 mmHg 73%
    11:00 +17°C° 0 mm 3 mps 751 mmHg 65%
    12:00 +18°C° 0 mm 3 mps 750 mmHg 62%
    13:00 +19°C° 0 mm 4 mps 750 mmHg 59%
    14:00 +20°C° 0 mm 4 mps 749 mmHg 55%
    15:00 +20°C° 0 mm 3 mps 749 mmHg 57%
    16:00 +19°C° 0 mm 3 mps 748 mmHg 59%
    17:00 +19°C° 0 mm 3 mps 748 mmHg 61%
    18:00 +17°C° 0 mm 2 mps 748 mmHg 66%
    19:00 +16°C° 0 mm 2 mps 748 mmHg 72%
    20:00 +14°C° 0 mm 2 mps 748 mmHg 78%
    21:00 +13°C° 0 mm 2 mps 749 mmHg 82%
    22:00 +13°C° 0 mm 2 mps 749 mmHg 86%
    23:00 +12°C° 0 mm 2 mps 749 mmHg 90%

    Tomorrow, 23 September, Monday

    Time Temperature Precipitation Wind Pressure Humidity
    00:00 +11°C° 0 mm 3 mps 750 mmHg 91%
    01:00 +10°C° 0 mm 3 mps 750 mmHg 91%
    02:00 +10°C° 0 mm 4 mps 750 mmHg 92%
    03:00 +8°C° 0 mm 4 mps 751 mmHg 87%
    04:00 +8°C° 0 mm 5 mps 751 mmHg 82%
    05:00 +8°C° 0 mm 5 mps 751 mmHg 77%
    06:00 +8°C° 0 mm 5 mps 751 mmHg 76%
    07:00 +8°C° 0 mm 5 mps 751 mmHg 74%
    08:00 +7°C° 0 mm 5 mps 752 mmHg 72%
    09:00 +8°C° 0 mm 5 mps 752 mmHg 68%
    10:00 +9°C° 0 mm 5 mps 752 mmHg 64%
    11:00 +10°C° 0 mm 5 mps 753 mmHg 60%
    12:00 +12°C° 0 mm 5 mps 752 mmHg 57%
    13:00 +13°C° 0 mm 5 mps 752 mmHg 53%
    14:00 +13°C° 0 mm 5 mps 752 mmHg 50%
    15:00 +13°C° 0 mm 5 mps 752 mmHg 51%
    16:00 +13°C° 0 mm 4 mps 752 mmHg 51%
    17:00 +12°C° 0 mm 4 mps 751 mmHg 52%
    18:00 +11°C° 0 mm 4 mps 752 mmHg 56%
    19:00 +8°C° 0 mm 4 mps 752 mmHg 60%
    20:00 +7°C° 0 mm 3 mps 752 mmHg 64%
    21:00 +7°C° 0 mm 3 mps 752 mmHg 65%
    22:00 +5°C° 0 mm 3 mps 752 mmHg 66%
    23:00 +5°C° 0 mm 3 mps 752 mmHg 67%

    Day after tomorrow, 24 September, Tuesday

    Time Temperature Precipitation Wind Pressure Humidity
    00:00 +4°C° 0 mm 3 mps 752 mmHg 67%
    01:00 +4°C° 0 mm 3 mps 752 mmHg 67%
    02:00 +4°C° 0 mm 3 mps 752 mmHg 68%
    03:00 +3°C° 0 mm 3 mps 752 mmHg 68%
    04:00 +3°C° 0 mm 3 mps 752 mmHg 68%
    05:00 +3°C° 0 mm 3 mps 751 mmHg 69%
    06:00 +4°C° 0 mm 3 mps 751 mmHg 66%
    07:00 +4°C° 0 mm 3 mps 751 mmHg 64%
    08:00 +5°C° 0 mm 3 mps 751 mmHg 61%
    09:00 +8°C° 0 mm 3 mps 751 mmHg 58%
    10:00 +10°C° 0 mm 3 mps 751 mmHg 55%
    11:00 +12°C° 0 mm 3 mps 751 mmHg 52%
    12:00 +13°C° 0 mm 3 mps 750 mmHg 50%
    13:00 +14°C° 0 mm 3 mps 750 mmHg 49%
    14:00 +16°C° 0 mm 2 mps 749 mmHg 47%
    15:00 +16°C° 0 mm 2 mps 749 mmHg 50%
    16:00 +16°C° 0 mm 2 mps 749 mmHg 52%
    17:00 +16°C° 0 mm 2 mps 749 mmHg 54%
    18:00 +14°C° 0 mm 2 mps 748 mmHg 59%
    19:00 +12°C° 0 mm 2 mps 748 mmHg 64%
    20:00 +9°C° 0 mm 3 mps 748 mmHg 69%
    21:00 +9°C° 0 mm 3 mps 748 mmHg 72%
    22:00 +8°C° 0 mm 3 mps 748 mmHg 75%
    23:00 +8°C° 0 mm 3 mps 748 mmHg 78%

    25 September, Wednesday

    Time Temperature Precipitation Wind Pressure Humidity
    00:00 +7°C° 0 mm 3 mps 748 mmHg 78%
    01:00 +7°C° 0 mm 3 mps 748 mmHg 78%
    02:00 +7°C° 0 mm 3 mps 748 mmHg 78%
    03:00 +7°C° 0 mm 3 mps 747 mmHg 78%
    04:00 +7°C° 0 mm 3 mps 747 mmHg 77%
    05:00 +7°C° 0 mm 3 mps 747 mmHg 77%
    06:00 +7°C° 0 mm 3 mps 747 mmHg 73%
    07:00 +7°C° 0 mm 4 mps 746 mmHg 70%
    08:00 +8°C° 0 mm 4 mps 746 mmHg 66%
    09:00 +10°C° 0 mm 4 mps 746 mmHg 63%
    10:00 +12°C° 0 mm 4 mps 746 mmHg 60%
    11:00 +13°C° 0 mm 4 mps 746 mmHg 57%
    12:00 +14°C° 0 mm 5 mps 746 mmHg 57%
    13:00 +14°C° 0 mm 5 mps 745 mmHg 57%
    14:00 +15°C° 0 mm 5 mps 745 mmHg 57%
    15:00 +15°C° 0 mm 4 mps 745 mmHg 60%
    16:00 +15°C° 0 mm 4 mps 744 mmHg 62%
    17:00 +16°C° 0 mm 3 mps 744 mmHg 64%
    18:00 +14°C° 0 mm 3 mps 744 mmHg 69%
    19:00 +13°C° 0 mm 3 mps 744 mmHg 73%
    20:00 +12°C° 0 mm 3 mps 744 mmHg 78%
    21:00 +12°C° 0.1 mm 3 mps 744 mmHg 83%
    22:00 +12°C° 0.1 mm 3 mps 744 mmHg 88%
    23:00 +12°C° 0.1 mm 3 mps 744 mmHg 93%

    26 September, Thursday

    Time Temperature Precipitation Wind Pressure Humidity
    00:00 +12°C° 0.3 mm 3 mps 744 mmHg 94%
    01:00 +13°C° 0.3 mm 2 mps 743 mmHg 95%
    02:00 +13°C° 0.3 mm 2 mps 743 mmHg 97%
    03:00 +13°C° 0 mm 2 mps 743 mmHg 96%
    04:00 +12°C° 0 mm 2 mps 743 mmHg 96%
    05:00 +12°C° 0 mm 1 mps 743 mmHg 96%
    06:00 +13°C° 0 mm 2 mps 743 mmHg 95%
    07:00 +13°C° 0 mm 2 mps 743 mmHg 94%
    08:00 +13°C° 0 mm 2 mps 744 mmHg 93%
    09:00 +14°C° 0 mm 2 mps 744 mmHg 88%
    10:00 +15°C° 0 mm 2 mps 744 mmHg 83%
    11:00 +16°C° 0 mm 3 mps 745 mmHg 79%
    12:00 +16°C° 0.1 mm 3 mps 745 mmHg 76%
    13:00 +17°C° 0.1 mm 3 mps 745 mmHg 74%
    14:00 +17°C° 0.1 mm 4 mps 745 mmHg 71%
    15:00 +17°C° 0 mm 4 mps 745 mmHg 72%
    16:00 +17°C° 0 mm 4 mps 745 mmHg 72%
    17:00 +16°C° 0 mm 3 mps 746 mmHg 73%
    18:00 +14°C° 0 mm 3 mps 746 mmHg 77%
    19:00 +12°C° 0 mm 3 mps 746 mmHg 82%
    20:00 +11°C° 0 mm 3 mps 747 mmHg 87%
    21:00 +10°C° 0 mm 3 mps 747 mmHg 89%
    22:00 +9°C° 0 mm 2 mps 748 mmHg 92%
    23:00 +8°C° 0 mm 2 mps 748 mmHg 94%

    27 September, Friday

    Time Temperature Precipitation Wind Pressure Humidity
    00:00 +7°C° 0 mm 2 mps 748 mmHg 95%
    01:00 +7°C° 0 mm 2 mps 748 mmHg 95%
    02:00 +7°C° 0 mm 2 mps 749 mmHg 95%
    03:00 +6°C° 0 mm 2 mps 749 mmHg 95%
    04:00 +6°C° 0 mm 2 mps 749 mmHg 95%
    05:00 +6°C° 0 mm 2 mps 749 mmHg 95%
    06:00 +6°C° 0 mm 2 mps 749 mmHg 94%
    07:00 +7°C° 0 mm 2 mps 750 mmHg 92%
    08:00 +7°C° 0 mm 2 mps 750 mmHg 90%
    09:00 +10°C° 0 mm 1 mps 750 mmHg 84%
    10:00 +11°C° 0 mm 1 mps 750 mmHg 77%
    11:00 +12°C° 0 mm 1 mps 751 mmHg 71%
    12:00 +14°C° 0 mm 1 mps 750 mmHg 66%
    13:00 +15°C° 0 mm 1 mps 750 mmHg 61%
    14:00 +16°C° 0 mm 1 mps 750 mmHg 56%
    15:00 +16°C° 0 mm 1 mps 750 mmHg 57%
    16:00 +16°C° 0 mm 1 mps 750 mmHg 58%
    17:00 +15°C° 0 mm 0 mps 750 mmHg 59%
    18:00 +15°C° 0 mm 1 mps 750 mmHg 63%
    19:00 +13°C° 0 mm 1 mps 750 mmHg 68%
    20:00 +11°C° 0 mm 1 mps 750 mmHg 72%
    21:00 +10°C° 0 mm 2 mps 751 mmHg 74%
    22:00 +10°C° 0 mm 2 mps 751 mmHg 76%
    23:00 +10°C° 0 mm 3 mps 751 mmHg 77%
    Show more